Flag for France Weather past 2 weeks in Marseille, France

Now
63 °F

Clear.


Feels Like: 63 °F
Forecast: 59 / 68 °F
Wind: 25 mph from Northwest

Location: Marseille / Marignane

Current Time: Mar 30, 2015 at 10:04:49 PM

Latest Report: Mar 30, 2015 at 9:30 PM


Visibility: 10 mi

Pressure: 30.01 "Hg

Humidity: 59%

Dew point: 48 °F

Location of MarseilleLocation

Historic Weather in Marseille — Graph

°F

Marseille temperature yesterday

Maximum temperature yesterday: 66 °F (at 1:30 PM)
Minimum temperature yesterday: 54 °F (at 3:00 AM)
Average temperature yesterday: 59 °F

Past Weeks' High & Low Weather Summary

 TemperatureHumidityPressure
High72 °F (Mar 30, 4:30 PM)100% (Mar 17, 4:00 AM)30.24 "Hg (Mar 17, 4:00 AM)
Low41 °F (Mar 23, 5:30 AM)32% (Mar 28, 12:00 PM)29.50 "Hg (Mar 25, 3:00 PM)
Average54 °F70%29.97 "Hg
* Reported Mar 15 7:00 PM — Mar 30 8:30 PM, Marseille, Weather by CustomWeather, © 2015

Note: Actual official high and low records may vary slightly from our data, if they occured in-between our weather recording intervals... More about our weather records

Advertising

Marseille weather history for previous 24 hours

 ConditionsComfort  
Time TempWeatherWind HumidityBarometerVisibility
8:30 PM
Mon, Mar 30
63 °FSunny.24 mph59%29.98 "Hg10 mi
8:00 PM64 °FSunny.18 mph60%29.98 "Hg10 mi
7:30 PM64 °FSunny.17 mph56%29.98 "Hg10 mi
7:00 PM68 °FSunny.21 mph49%29.95 "Hg10 mi
6:30 PM70 °FSunny.24 mph43%29.95 "Hg10 mi
6:00 PM70 °FSunny.22 mph43%29.95 "Hg10 mi
5:30 PM70 °FSunny.21 mph43%29.95 "Hg10 mi
5:00 PM70 °FSunny.24 mph43%29.95 "Hg10 mi
4:30 PM72 °FSunny.23 mph41%29.95 "Hg10 mi
4:00 PM70 °FSunny.25 mph40%29.95 "Hg10 mi
3:30 PM70 °FSunny.22 mph43%29.95 "Hg10 mi
3:00 PM70 °FSunny.23 mph43%29.95 "Hg10 mi
2:30 PM70 °FSunny.25 mph43%29.95 "Hg10 mi
2:00 PM70 °FSunny.23 mph40%29.95 "Hg10 mi
1:30 PM68 °FSunny.20 mph46%29.95 "Hg10 mi
1:00 PM66 °FSunny.21 mph56%29.95 "Hg10 mi
12:30 PM64 °FSunny.22 mph56%29.95 "Hg10 mi
12:00 PM64 °FSunny.21 mph56%29.95 "Hg10 mi
11:30 AM64 °FSunny.22 mph56%29.98 "Hg10 mi
11:00 AM61 °FSunny.18 mph63%29.95 "Hg10 mi
10:30 AM61 °FSunny.16 mph63%29.95 "Hg10 mi
10:00 AM59 °FSunny.17 mph68%29.95 "Hg10 mi
9:30 AM57 °FSunny.18 mph67%29.95 "Hg10 mi
9:00 AM57 °FSunny.23 mph67%29.95 "Hg10 mi
8:30 AM57 °FSunny.25 mph67%29.92 "Hg10 mi
8:00 AM55 °FClear.24 mph72%29.95 "Hg10 mi
7:30 AM55 °FPartly cloudy.18 mph72%29.92 "HgN/A
7:00 AM55 °FPartly cloudy.17 mph77%29.92 "HgN/A
6:30 AM55 °FPassing clouds.23 mph72%29.92 "HgN/A
6:00 AM55 °FPassing clouds.22 mph77%29.92 "HgN/A
5:30 AM57 °FClear.23 mph72%29.92 "Hg10 mi
5:00 AM55 °FClear.25 mph77%29.92 "Hg10 mi
4:30 AM55 °FClear.26 mph72%29.92 "Hg10 mi
4:00 AM57 °FClear.28 mph67%29.95 "HgN/A
3:30 AM57 °FClear.29 mph67%29.95 "HgN/A
3:00 AM57 °FClear.23 mph72%29.98 "HgN/A
2:30 AM55 °FClear.22 mph77%29.98 "HgN/A
2:00 AM57 °FClear.24 mph72%29.98 "HgN/A
1:30 AM57 °FClear.24 mph72%30.01 "HgN/A
1:00 AM57 °FClear.24 mph72%30.01 "Hg10 mi
12:30 AM57 °FClear.28 mph72%30.01 "Hg10 mi
12:00 AM57 °FClear.25 mph72%30.01 "Hg10 mi
11:30 PM
Sun, Mar 29
57 °FClear.23 mph72%30.01 "Hg10 mi
11:00 PM57 °FClear.23 mph72%30.04 "Hg10 mi
10:30 PM57 °FClear.23 mph72%30.04 "Hg10 mi
10:00 PM57 °FClear.23 mph72%30.01 "Hg10 mi
Weather by CustomWeather, © 2015

See weather overviewHow to use our weather pages